Weather History for Defiance, OH

Change the Weather History Date:

Tuesday, April 2, 2013

  Actual Average Record
Temperature  
Mean Temperature 32 °F -  
Max Temperature 45 °F 53 °F 79 °F (1986)
Min Temperature 21 °F 33 °F 20 °F (1961)
Degree Days  
Heating Degree Days 32    
Moisture  
Dew Point 12 °F    
Average Humidity 46    
Maximum Humidity 71    
Minimum Humidity 23    
Precipitation  
Precipitation 0.00 in - - ()
Sea Level Pressure  
Sea Level Pressure 30.22 in    
Wind  
Wind Speed 4 mph (WNW)    
Max Wind Speed 14 mph    
Max Gust Speed 23 mph    
Visibility 10 miles    
Events      
Averages and records for this station are not official NWS values.
T = Trace of Precipitation, MM = Missing Value Source: NWS Daily Summary

Daily Weather History Graph

Daily Weather History Graph

Search for Another Location

Airport:

Trip Planner

Search our weather history database for the weather conditions in past years. The results will help you decide how hot, cold, wet, or windy it might be!

Date:

Astronomy

Apr. 02, 2013 Rise Set
Actual Time 7:18 AM EDT 8:04 PM EDT
Civil Twilight 6:50 AM EDT 8:32 PM EDT
Nautical Twilight 6:17 AM EDT 9:05 PM EDT
Astronomical Twilight 5:43 AM EDT 9:39 PM EDT
Moon 2:10 AM EDT (4/2) 12:06 PM EDT (4/2)
Length of Visible Light 13h 41m
Length of Day
12h 45m
Waning Gibbous, 56% of the Moon is Illuminated
Apr 2
Waning Gibbous
Apr 3
Last Quarter
Apr 10
New
Apr 18
First Quarter
Apr 25
Full

Hourly Weather History & Observations

Time (EDT) Temp. Windchill Dew Point Humidity Pressure Visibility Wind Dir Wind Speed Gust Speed Precip Events Conditions
12:53 AM 26.1 °F 21.9 °F 12.9 °F 58% 30.16 in 10.0 mi WSW 3.5 mph - N/A   Clear
1:53 AM 23.0 °F - 12.0 °F 63% 30.17 in 10.0 mi Calm Calm - N/A   Clear
2:53 AM 21.9 °F - 12.9 °F 68% 30.17 in 10.0 mi Calm Calm - N/A   Clear
3:53 AM 21.0 °F - 12.9 °F 71% 30.17 in 10.0 mi Calm Calm - N/A   Partly Cloudy
4:53 AM 21.9 °F 17.2 °F 12.9 °F 68% 30.17 in 10.0 mi WSW 3.5 mph - N/A   Clear
5:53 AM 21.0 °F - 12.9 °F 71% 30.18 in 10.0 mi Calm Calm - N/A   Clear
6:53 AM 21.9 °F 17.2 °F 12.9 °F 68% 30.20 in 10.0 mi WSW 3.5 mph - N/A   Clear
7:53 AM 24.1 °F 19.7 °F 16.0 °F 71% 30.23 in 10.0 mi WSW 3.5 mph - N/A   Clear
8:53 AM 28.9 °F 21.9 °F 19.0 °F 67% 30.25 in 10.0 mi NW 6.9 mph - N/A   Clear
9:53 AM 34.0 °F 29.8 °F 16.0 °F 48% 30.26 in 10.0 mi Variable 4.6 mph - N/A   Clear
10:53 AM 35.1 °F 28.6 °F 9.0 °F 34% 30.26 in 10.0 mi NW 8.1 mph - N/A   Clear
11:53 AM 37.0 °F 31.6 °F 12.0 °F 36% 30.26 in 10.0 mi Variable 6.9 mph - N/A   Scattered Clouds
12:53 PM 39.0 °F 32.8 °F 12.9 °F 34% 30.25 in 10.0 mi West 9.2 mph 18.4 mph N/A   Scattered Clouds
1:53 PM 39.9 °F 35.1 °F 12.0 °F 32% 30.22 in 10.0 mi Variable 6.9 mph - N/A   Mostly Cloudy
2:53 PM 41.0 °F 36.4 °F 12.0 °F 31% 30.21 in 10.0 mi Variable 6.9 mph 21.9 mph N/A   Mostly Cloudy
3:53 PM 43.0 °F 37.7 °F 10.9 °F 27% 30.19 in 10.0 mi West 9.2 mph 18.4 mph N/A   Mostly Cloudy
4:53 PM 43.0 °F 38.2 °F 8.1 °F 24% 30.18 in 10.0 mi WNW 8.1 mph 19.6 mph N/A   Partly Cloudy
5:53 PM 44.1 °F 39.5 °F 8.1 °F 23% 30.20 in 10.0 mi West 8.1 mph 23.0 mph N/A   Scattered Clouds
6:53 PM 41.0 °F 33.5 °F 7.0 °F 25% 30.22 in 10.0 mi WNW 13.8 mph 19.6 mph N/A   Clear
7:53 PM 37.0 °F 29.3 °F 9.0 °F 31% 30.24 in 10.0 mi NW 11.5 mph - N/A   Clear
8:53 PM 34.0 °F 26.6 °F 8.1 °F 34% 30.26 in 10.0 mi NW 9.2 mph - N/A   Clear
9:53 PM 30.9 °F 23.5 °F 9.0 °F 40% 30.27 in 10.0 mi NNW 8.1 mph - N/A   Clear
10:53 PM 30.0 °F 25.2 °F 9.0 °F 41% 30.29 in 10.0 mi NW 4.6 mph - N/A   Clear
11:53 PM 28.9 °F 23.9 °F 10.0 °F 45% 30.30 in 10.0 mi NW 4.6 mph - N/A   Clear